Theta_e
312 312 312 311 311 311 312 312 312 310 310 308 306 305 303 302 300 299 299 298 296 295
310 308 310 310 310 309 309 309 307 305 303 303 303 302 301 298 296 297 296 295 294 292
309 309 305 307 307 307 307 306 304 303 301 301 300 299 299 297 296 295 294 293 292 292
307 306 306 307 306 305 305 304 302 301 299 298 297 297 295 295 294 293 292 292 292 292
306 307 305 303 304 305 303 302 301 300 298 297 296 295 294 293 293 292 291 292 293 292
303 305 305 304 303 303 302 302 301 299 297 296 296 295 295 294 293 293 293 294 293 291
301 303 304 305 304 303 302 301 300 299 298 297 297 297 296 295 294 294 293 293 292 291
301 301 303 303 303 303 302 302 301 299 298 297 297 296 295 294 293 292 290 290 290 290
300 300 300 300 299 300 300 300 300 298 297 295 296 293 293 293 292 290 288 287 287 289
297 297 297 298 297 296 297 298 297 296 295 295 295 292 292 291 290 288 287 286 286 284
295 294 293 294 294 292 292 296 296 295 294 293 292 291 291 290 288 287 286 285 284 283
292 290 290 290 290 289 290 291 293 293 291 289 288 290 289 288 286 285 284 284 283 282
291 290 289 287 285 284 288 288 288 287 288 288 288 289 289 286 284 282 282 282 283 283
288 287 288 288 287 287 287 287 286 286 286 287 287 287 288 286 284 282 281 281 281 282
Wind_Speed
4 1 2 4 3 5 5 3 3 4 7 11 11 10 7 9 12 13 11 15 10 7
5 6 3 1 2 1 3 0 5 7 7 8 2 4 10 7 6 5 6 9 10 8
4 1 3 5 2 1 2 2 1 5 8 10 10 7 10 6 11 11 7 8 10 9
5 4 3 3 3 2 4 4 5 6 6 8 9 9 9 7 11 13 12 9 10 10
6 5 4 3 5 5 8 5 4 8 8 10 10 9 10 10 8 12 13 13 12 11
7 6 5 5 4 5 4 5 6 7 8 10 13 13 12 12 11 10 12 12 11 10
7 7 8 6 6 7 7 5 6 7 8 9 12 13 12 11 11 9 8 9 10 11
9 6 7 5 5 5 7 7 7 7 7 9 9 8 11 11 11 11 9 7 7 8
6 6 5 4 4 5 5 6 7 8 8 8 7 12 15 15 12 12 12 11 8 8
5 6 6 4 3 6 7 8 7 7 9 10 9 17 20 19 11 12 12 12 11 8
6 6 5 6 5 2 4 8 8 8 8 8 6 19 20 20 13 11 12 13 14 14
6 6 6 7 5 3 4 4 6 7 8 8 8 20 21 16 12 12 12 11 13 14
6 6 7 7 5 3 3 4 4 5 7 10 11 20 21 17 10 12 10 10 11 20
4 7 6 6 2 3 3 5 5 6 6 9 13 17 24 22 11 11 11 10 9 9
Wind_Direction
38 40 53 34 308 23 324 241 231 176 284 268 224 195 171 183 164 172 166 166 167 150
2 4 325 238 69 337 295 323 159 136 133 117 289 150 123 152 95 134 141 141 137 129
304 273 326 348 296 134 106 327 346 138 126 141 140 151 132 157 141 143 132 135 136 121
267 252 211 179 230 230 134 150 183 104 138 128 119 121 119 143 142 139 131 137 141 123
283 280 260 211 193 205 161 155 148 154 161 121 125 123 129 138 147 139 138 143 135 138
270 276 277 253 216 203 155 172 171 161 145 153 146 152 155 149 150 149 147 153 148 143
263 254 251 241 202 184 175 173 188 184 169 165 158 163 160 155 155 154 157 160 151 156
266 249 261 247 196 191 177 187 194 175 170 170 172 166 160 151 144 136 134 128 133 145
300 306 302 306 194 186 182 175 188 179 164 175 178 167 162 153 146 144 139 133 124 137
292 304 309 300 202 193 199 170 187 180 168 178 179 168 160 147 145 143 140 136 127 116
294 297 310 319 287 210 183 191 175 186 175 168 169 164 157 142 137 135 138 140 139 134
285 299 315 310 297 211 172 177 177 179 166 161 151 159 149 134 135 133 134 137 137 135
284 285 290 300 298 228 175 151 148 141 154 158 153 156 149 138 136 131 130 124 135 139
267 286 286 293 254 212 163 136 148 138 146 150 158 161 154 147 143 139 136 136 137 144